Regional Weather Roundup
Issued by NWS

Home | Current Version | Previous Version | Graphics & Text | Print | Product List | Glossary On
Versions: 1 2 3 4 5 6 7 8 9 10 11 12 13 14 15 16 17 18 19 20 21 22 23 24 25 26 27 28 29 30 31 32 33 34 35 36 37 38 39 40 41 42 43 44 45 46 47 48 49 50
647
ASUS43 KIND 272009
RWRIN

WEATHER ROUNDUP FOR INDIANA
NATIONAL WEATHER SERVICE INDIANAPOLIS IN
300 PM EST MON FEB 27 2017

NOTE: "FAIR" INDICATES FEW OR NO CLOUDS BELOW 12,000 FEET WITH NO
SIGNIFICANT WEATHER AND/OR OBSTRUCTIONS TO VISIBILITY.

* - STATION DOES NOT REPORT WEATHER SUCH AS PRECIPITATION OR FOG.

+ - STATION NOT QUALITY CONTROLLED BY THE NATIONAL WEATHER SERVICE.
    USE DATA WITH CAUTION...ESPECIALLY DEWPOINT AND RELATIVE
    HUMIDITY OBSERVATIONS.

INZ001>003-010>013-019-020-272100-
NORTHWEST INDIANA

CITY           SKY/WX    TMP DP  RH WIND       PRES   REMARKS
GARY /AIRPORT/ MOSUNNY   52  30  43 S7        30.13F
KNOX *+        MOSUNNY   50  10  20 S8G21     30.14F
LA PORTE +     PTSUNNY   49  35  57 S9        30.14F
MICHIGAN CITY+ PTSUNNY   50  34  53 SW7       30.14F
MONTICELLO +   CLOUDY    52  32  47 S6        30.13F
RENSSELAER +   CLOUDY    54  32  43 S8        30.13S
VALPARAISO     PTSUNNY   51  35  54 SW10      30.13F

$$

LMZ046-743>745-272100-
SOUTHERN LAKE MICHIGAN

STATION/POSITION TIME  TEMP    WIND        PRES    WAVE
                       AIR SEA DIR/SP/G            HT
                 (UTC) (F)     (DEG/KT/KT) (MB)    (FT)
BURNS HARBOR     1940   49     190/ 12/ 15 1020.7F
MICHIGAN CITY    1940   44     290/  4/  5   N/A

$$

INZ004-005-014>016-021>024-272100-
NORTH CENTRAL INDIANA

CITY           SKY/WX    TMP DP  RH WIND       PRES   REMARKS
ELKHART        MOSUNNY   48  34  57 SW7G16    30.15F
GOSHEN         MOSUNNY   50  33  52 S12       30.15F
LOGANSPORT +   CLOUDY    52  34  50 S7        30.15S
PERU/GRISSOM   PTSUNNY   52  35  52 S8        30.14F
ROCHESTER +    MOSUNNY   52  34  50 S5        30.15F
SOUTH BEND     PTSUNNY   49  34  56 S7        30.15F
WARSAW +       PTSUNNY   52  32  46 SW8       30.15F

$$

INZ006>009-017-018-025>027-272100-
NORTHEAST INDIANA

CITY           SKY/WX    TMP DP  RH WIND       PRES   REMARKS
ANGOLA *+      CLOUDY    48  36  61 S6        30.17S
AUBURN +       CLOUDY    48  32  53 S5        30.18F
FORT WAYNE     PTSUNNY   51  33  50 S7        30.17F
HUNTINGTON +   CLOUDY    50  31  48 S3        30.16F
KENDALLVILLE + CLOUDY    48  34  58 SW13      30.17S

$$

INZ028-029-035-036-043>045-051>053-272100-
WEST CENTRAL INDIANA

CITY           SKY/WX    TMP DP  RH WIND       PRES   REMARKS
GREENCASTLE +  CLOUDY    52  37  58 SE10      30.14S
LAFAYETTE      PTSUNNY   52  35  52 S3        30.13F
TERRE HAUTE    PTSUNNY   54  40  59 SE10      30.12F

$$

INZ030>032-037>040-046>048-054>057-064-065-272100-
CENTRAL INDIANA

CITY           SKY/WX    TMP DP  RH WIND       PRES   REMARKS
ANDERSON       CLOUDY    48  37  66 S12       30.17
CP ATTERBURY + CLOUDY    46  41  81 S9        30.18S
COLUMBUS       CLOUDY    46  45  93 S9        30.19F
FISHERS *+     CLOUDY    50  43  76 S12       30.16F
FRANKFORT +    CLOUDY    55  40  56 S6        30.15F
GREENWOOD *+   CLOUDY    50  41  69 S10       30.17F
INDIANAPOLIS   PTSUNNY   52  39  61 SE14      30.14F
-EAGLE CREEK   CLOUDY    51  37  58 SE9       30.14F
KOKOMO +       CLOUDY    52  36  54 S7        30.16F
MARION +       CLOUDY    51  37  59 S10       30.16F
MT COMFORT *+  CLOUDY    48  39  71 S13       30.17F
SHELBYVILLE    CLOUDY    50  40  68 SE14      30.17F
ZIONSVILLE +   CLOUDY    50  37  62 S8        30.15F

$$

INZ033-034-041-042-049-050-058-059-272100-
EAST CENTRAL INDIANA

CITY           SKY/WX    TMP DP  RH WIND       PRES   REMARKS
MUNCIE         CLOUDY    50  37  61 S7        30.17F

$$

INZ060-061-067>069-081>083-085>088-272100-
SOUTHWEST INDIANA

CITY           SKY/WX    TMP DP  RH WIND       PRES   REMARKS
EVANSVILLE     CLOUDY    56  45  66 SE5       30.14F
HUNTINGBURG *+ CLOUDY    52  45  76 E7        30.15F
WASHINGTON +   CLOUDY    53  41  65 S12G17    30.14F

$$

INZ062-063-066-070>080-084-089>092-272100-
SOUTH CENTRAL AND SOUTHEAST INDIANA

CITY           SKY/WX    TMP DP  RH WIND       PRES   REMARKS
BEDFORD +      CLOUDY    50  43  76 SE6       30.16F
BLOOMINGTON    CLOUDY    49  40  71 SE10      30.14F
MADISON *+     CLOUDY    48  45  87 SE7       30.20F
NORTH VERNON + CLOUDY   N/A N/A N/A SE3       30.19F
SEYMOUR +      CLOUDY    48  45  87 S7        30.18F

$$





USA.gov is the U.S. government's official web portal to all federal, state and local government web resources and services.